Flag for Bermuda Weather past 2 weeks in Hamilton, Bermuda

Now
70 °F

Overcast.


Feels Like: 70 °F
Forecast: 65 / 68 °F
Wind: 6 mph from Southwest

Location: Bermuda

Current Time: Dec 28, 2014 at 2:04:55 PM

Latest Report: Dec 28, 2014 at 12:55 PM


Visibility: N/A

Pressure: 30.24 "Hg

Humidity: 53%

Dew point: 52 °F

Location of HamiltonLocation

Historic Weather in Hamilton — Graph

°F

Hamilton temperature yesterday

Maximum temperature yesterday: 72 °F (at 12:55 PM)
Minimum temperature yesterday: 66 °F (at 12:55 AM)
Average temperature yesterday: 68 °F

Past Weeks' High & Low Weather Summary

 TemperatureHumidityPressure
High75 °F (Dec 24, 12:55 PM)100% (Dec 14, 10:55 PM)30.27 "Hg (Dec 14, 10:55 PM)
Low61 °F (Dec 14, 5:59 PM)46% (Dec 16, 2:55 PM)29.74 "Hg (Dec 14, 6:55 PM)
Average68 °F70%30.07 "Hg
* Reported Dec 13 12:55 PM — Dec 28 12:55 PM, Hamilton, Weather by CustomWeather, © 2014

Note: Actual official high and low records may vary slightly from our data, if they occured in-between our weather recording intervals... More about our weather records

Advertising

Hamilton weather history for previous 24 hours

 ConditionsComfort  
Time TempWeatherWind HumidityBarometerVisibility
12:55 PM
Dec 28
70 °FOvercast.6 mph53%30.24 "HgN/A
11:55 AM70 °FOvercast.2 mph53%30.24 "HgN/A
10:55 AM68 °FOvercast.3 mph56%30.27 "HgN/A
9:55 AM68 °FOvercast.No wind56%30.27 "HgN/A
8:55 AM66 °FOvercast.No wind60%30.27 "HgN/A
7:55 AM66 °FPartly sunny.3 mph56%30.27 "HgN/A
6:55 AM66 °FPassing clouds.6 mph56%30.24 "HgN/A
5:55 AM66 °FPassing clouds.No wind56%30.24 "HgN/A
4:55 AM66 °FPassing clouds.1 mph56%30.24 "HgN/A
3:55 AM66 °FPassing clouds.6 mph56%30.24 "HgN/A
2:55 AM68 °FPassing clouds.7 mph49%30.24 "HgN/A
1:55 AM68 °FOvercast.5 mph53%30.24 "HgN/A
12:55 AM68 °FOvercast.5 mph56%30.27 "HgN/A
11:55 PM
Dec 27
66 °FOvercast.3 mph64%30.24 "HgN/A
10:55 PM68 °FOvercast.No wind53%30.27 "HgN/A
9:55 PM68 °FOvercast.No wind53%30.27 "HgN/A
8:55 PM68 °FPassing clouds.3 mph56%30.27 "HgN/A
7:55 PM68 °FPassing clouds.7 mph56%30.27 "HgN/A
6:55 PM68 °FPassing clouds.6 mph60%30.27 "HgN/A
5:55 PM68 °FPassing clouds.5 mph60%30.24 "HgN/A
4:55 PM68 °FPartly sunny.9 mph53%30.24 "HgN/A
3:55 PM70 °FPartly sunny.9 mph53%30.24 "HgN/A
2:55 PM70 °FPartly sunny.9 mph57%30.24 "HgN/A
Weather by CustomWeather, © 2014

See weather overviewHow to use our weather pages